Погода в Жмеринке

Украина / Винницкая область     49°02′32″N   28°05′57″E
темп.,
°C
ветер,
м/с
пор.,
м/с
влажн.,
%
обл.,
%
осадки,
мм/ч
давл.,
гПа
погр.,
м
1 августа, вс
вс100:00+20ююв23730 0.0 100923
03:00+18с22835 0.0 101015
06:00+18ю11779 0.0 100911
09:00+22с33711 0.0 1010351
12:00+26ссз33600 0.0 1010985
15:00+28зсз22530 0.0 10101542
18:00+28юз12515 0.0 10091341
21:00+23ю33695 0.0 100932
2 августа, пн
пн200:00+21ююв4670100 0.0 100875
03:00+20юв4776100 0.3 1007103
06:00+19ююв3785100 0.0 1006117
09:00+24ююз41170100 0.0 1006288
12:00+29з6849100 0.0 1007968
15:00+24ююз226689 0.2 1007109
18:00+23ссз6117424 0.7 1009455
21:00+19сз510810 1.1 1011303
3 августа, вт
вт300:00+15сз39910 0.0 1013237
03:00+13сз36950 0.0 1015132
06:00+13сз34944 0.0 101590
09:00+18зсз357490 0.0 1016505
12:00+22зсз345639 0.1 10171523
15:00+24зсз354695 0.4 10162232
18:00+22сз235596 0.0 1016653
21:00+18ссз11675 0.0 101711
4 августа, ср
ср400:00+16всв22780 0.0 101811
03:00+15юв22795 0.0 101813
06:00+14вюв228014 0.0 101823
09:00+20ююв466222 0.1 1018367
12:00+24ююв57515 0.0 10171337
15:00+26ю554911 0.0 10161977
18:00+26ю455112 0.0 10151669
21:00+22ююв2267100 0.0 101522
5 августа, чт
чт500:00+19св2582100 1.2 101597
03:00+17в6995100 7.3 1015221
06:00+17вюв6129655 1.1 1014262
09:00+21ююв597682 1.1 1013466
12:00+26ю785649 0.0 1012909
15:00+29ю7747100 0.0 10111264
18:00+28ююв695150 0.0 1009978
21:00+22юв41268100 0.0 1009243